| time (UTC) | temp F | wind direction | speed knots | gust knots | rain 1hr in | rain 24hr in | rain mn in | humidity % | barometer mb |
| 20260905091241 | 73 | 248 | 0.9 | 0.9 | 0.00 | 0.00 | 0.00 | 75 | 1009.2 |
| 20260905090740 | 73 | 240 | 0.9 | 0.9 | 0.00 | 0.00 | 0.00 | 74 | 1009.3 |
| 20260905090236 | 73 | 260 | 0.9 | 0.9 | 0.00 | 0.00 | 0.00 | 74 | 1009.3 |
| 20260905085735 | 73 | 266 | 2.6 | 2.6 | 0.00 | 0.00 | 0.00 | 74 | 1009.4 |
| 20260905085230 | 73 | 245 | 0.0 | 0.0 | 0.00 | 0.00 | 0.00 | 75 | 1009.5 |
| 20260905084725 | 73 | 257 | 0.9 | 1.7 | 0.00 | 0.00 | 0.00 | 75 | 1009.4 |
| 20260905084224 | 73 | 252 | 0.0 | 0.9 | 0.00 | 0.00 | 0.00 | 75 | 1009.3 |
| 20260905083720 | 73 | 249 | 0.0 | 0.0 | 0.00 | 0.00 | 0.00 | 75 | 1009.2 |
| 20260905083215 | 73 | 249 | 0.9 | 0.9 | 0.00 | 0.00 | 0.00 | 76 | 1009.3 |
| 20260905082711 | 73 | 248 | 0.0 | 0.0 | 0.00 | 0.00 | 0.00 | 75 | 1009.3 |
| 20260905082207 | 74 | 250 | 0.9 | 0.9 | 0.00 | 0.00 | 0.00 | 74 | 1009.2 |
| 20260905081706 | 73 | 250 | 0.0 | 0.9 | 0.00 | 0.00 | 0.00 | 75 | 1009.4 |
| 20260905081201 | 74 | 251 | 0.0 | 0.0 | 0.00 | 0.00 | 0.00 | 74 | 1009.3 |
| 20260905080701 | 74 | 252 | 0.9 | 0.9 | 0.00 | 0.00 | 0.00 | 74 | 1009.6 |
| 20260905080200 | 74 | 253 | 1.7 | 1.7 | 0.00 | 0.00 | 0.00 | 74 | 1009.6 |
| 20260905075700 | 74 | 250 | 0.9 | 0.9 | 0.00 | 0.00 | 0.00 | 74 | 1009.4 |
| 20260905075159 | 74 | 246 | 0.9 | 1.7 | 0.00 | 0.00 | 0.00 | 74 | 1009.2 |
| 20260905074658 | 74 | 298 | 1.7 | 1.7 | 0.00 | 0.00 | 0.00 | 74 | 1009.4 |
| 20260905074154 | 74 | 245 | 0.9 | 1.7 | 0.00 | 0.00 | 0.00 | 74 | 1009.4 |
| 20260905073650 | 74 | 260 | 0.9 | 1.7 | 0.00 | 0.00 | 0.00 | 74 | 1009.3 |
| 20260905073145 | 74 | 234 | 0.0 | 0.0 | 0.00 | 0.00 | 0.00 | 74 | 1009.4 |
| 20260905072644 | 74 | 237 | 1.7 | 1.7 | 0.00 | 0.00 | 0.00 | 74 | 1009.4 |
| 20260905072140 | 74 | 246 | 0.9 | 0.9 | 0.00 | 0.00 | 0.00 | 75 | 1009.5 |
| 20260905071636 | 74 | 235 | 0.0 | 0.0 | 0.00 | 0.00 | 0.00 | 74 | 1009.3 |
| 20260905071131 | 74 | 248 | 0.9 | 0.9 | 0.00 | 0.00 | 0.00 | 74 | 1009.6 |
| 20260905070626 | 74 | 254 | 0.9 | 0.9 | 0.00 | 0.00 | 0.00 | 74 | 1009.6 |
| 20260905070123 | 74 | 233 | 0.9 | 0.9 | 0.00 | 0.00 | 0.00 | 75 | 1009.5 |
| 20260905065620 | 74 | 228 | 1.7 | 1.7 | 0.00 | 0.00 | 0.00 | 74 | 1009.3 |
| 20260905065115 | 74 | 223 | 0.9 | 0.9 | 0.00 | 0.00 | 0.00 | 74 | 1009.6 |
| 20260905064610 | 74 | 279 | 1.7 | 1.7 | 0.00 | 0.00 | 0.00 | 74 | 1009.7 |
| 20260905064106 | 74 | 215 | 2.6 | 2.6 | 0.00 | 0.00 | 0.00 | 74 | 1009.6 |
| 20260905063600 | 74 | 259 | 0.9 | 0.9 | 0.00 | 0.00 | 0.00 | 74 | 1009.6 |
| 20260905063056 | 75 | 240 | 0.9 | 1.7 | 0.00 | 0.00 | 0.00 | 73 | 1009.5 |
| 20260905062551 | 75 | 223 | 1.7 | 1.7 | 0.00 | 0.00 | 0.00 | 73 | 1009.6 |
| 20260905062050 | 75 | 238 | 0.9 | 0.9 | 0.00 | 0.00 | 0.00 | 73 | 1009.7 |
| 20260905061545 | 75 | 230 | 0.0 | 0.0 | 0.00 | 0.00 | 0.00 | 73 | 1009.6 |
| 20260905061044 | 75 | 356 | 1.7 | 1.7 | 0.00 | 0.00 | 0.00 | 73 | 1009.6 |
| 20260905060540 | 75 | 263 | 0.9 | 0.9 | 0.00 | 0.00 | 0.00 | 72 | 1009.5 |
| 20260905060036 | 75 | 263 | 2.6 | 4.3 | 0.00 | 0.00 | 0.00 | 73 | 1009.5 |
| 20260905055535 | 75 | 274 | 2.6 | 2.6 | 0.00 | 0.00 | 0.00 | 72 | 1009.6 |
| 20260905055030 | 75 | 332 | 2.6 | 2.6 | 0.00 | 0.00 | 0.00 | 72 | 1009.8 |
| 20260905054525 | 75 | 341 | 0.9 | 1.7 | 0.00 | 0.00 | 0.00 | 72 | 1009.8 |
| 20260905054021 | 75 | 244 | 0.0 | 0.0 | 0.00 | 0.00 | 0.00 | 72 | 1009.8 |
| 20260905053520 | 75 | 334 | 1.7 | 1.7 | 0.00 | 0.00 | 0.00 | 72 | 1009.8 |
| 20260905053016 | 75 | 227 | 0.0 | 0.0 | 0.00 | 0.00 | 0.00 | 73 | 1010.0 |
| 20260905052516 | 75 | 239 | 0.0 | 0.0 | 0.00 | 0.00 | 0.00 | 73 | 1010.1 |
| 20260905052016 | 75 | 239 | 0.9 | 0.9 | 0.00 | 0.00 | 0.00 | 73 | 1010.1 |
| 20260905051511 | 75 | 291 | 0.9 | 0.9 | 0.00 | 0.00 | 0.00 | 73 | 1010.0 |
| 20260905051009 | 75 | 240 | 0.0 | 0.0 | 0.00 | 0.00 | 0.00 | 73 | 1010.1 |
| 20260905050504 | 76 | 227 | 0.0 | 0.9 | 0.00 | 0.00 | 0.00 | 73 | 1010.2 |
| 20260905050000 | 76 | 235 | 0.0 | 0.0 | 0.00 | 0.00 | 0.00 | 73 | 1010.1 |
| 20260905045455 | 76 | 235 | 0.0 | 0.9 | 0.00 | 0.00 | 0.00 | 72 | 1010.1 |
| 20260905044950 | 76 | 232 | 0.9 | 0.9 | 0.00 | 0.00 | 0.00 | 71 | 1010.2 |
| 20260905044445 | 76 | 246 | 0.9 | 0.9 | 0.00 | 0.00 | 0.00 | 70 | 1010.2 |
| 20260905043939 | 77 | 253 | 0.9 | 0.9 | 0.00 | 0.00 | 0.00 | 70 | 1010.3 |
| 20260905043438 | 77 | 294 | 1.7 | 2.6 | 0.00 | 0.00 | 0.00 | 69 | 1010.3 |
| 20260905042933 | 77 | 236 | 0.0 | 0.9 | 0.00 | 0.00 | 0.00 | 69 | 1010.4 |
| 20260905042432 | 77 | 225 | 0.0 | 0.0 | 0.00 | 0.00 | 0.00 | 69 | 1010.5 |
| 20260905041928 | 77 | 230 | 0.9 | 0.9 | 0.00 | 0.00 | 0.00 | 69 | 1010.5 |
| 20260905041424 | 77 | 268 | 1.7 | 1.7 | 0.00 | 0.00 | 0.00 | 68 | 1010.5 |
| 20260905040925 | 77 | 218 | 0.9 | 0.9 | 0.00 | 0.00 | 0.00 | 69 | 1010.5 |
| 20260905040424 | 77 | 223 | 0.9 | 1.7 | 0.00 | 0.00 | 0.00 | 70 | 1010.4 |
| 20260905035923 | 77 | 290 | 1.7 | 1.7 | 0.00 | 0.00 | 0.00 | 70 | 1010.7 |
| 20260905035419 | 78 | 232 | 0.0 | 0.0 | 0.00 | 0.00 | 0.00 | 70 | 1010.5 |
| 20260905034915 | 78 | 235 | 0.9 | 0.9 | 0.00 | 0.00 | 0.00 | 70 | 1010.6 |
| 20260905034410 | 78 | 248 | 0.9 | 1.7 | 0.00 | 0.00 | 0.00 | 70 | 1010.5 |
| 20260905033909 | 78 | 317 | 2.6 | 2.6 | 0.00 | 0.00 | 0.00 | 71 | 1010.2 |
| 20260905033404 | 78 | 240 | 0.9 | 0.9 | 0.00 | 0.00 | 0.00 | 72 | 1010.4 |
| 20260905032904 | 78 | 248 | 0.0 | 0.0 | 0.00 | 0.00 | 0.00 | 71 | 1010.3 |
| 20260905032359 | 78 | 245 | 0.0 | 0.0 | 0.00 | 0.00 | 0.00 | 71 | 1010.3 |
| 20260905031854 | 78 | 247 | 0.9 | 0.9 | 0.00 | 0.00 | 0.00 | 71 | 1010.4 |
| 20260905031350 | 78 | 234 | 0.9 | 0.9 | 0.00 | 0.00 | 0.00 | 72 | 1010.3 |
| 20260905030845 | 78 | 227 | 0.0 | 0.0 | 0.00 | 0.00 | 0.00 | 71 | 1010.5 |
| 20260905030341 | 78 | 225 | 0.0 | 0.0 | 0.00 | 0.00 | 0.00 | 72 | 1010.4 |
| 20260905025840 | 78 | 225 | 0.9 | 0.9 | 0.00 | 0.00 | 0.00 | 72 | 1010.3 |
| 20260905025335 | 78 | 204 | 0.0 | 0.0 | 0.00 | 0.00 | 0.00 | 72 | 1010.2 |
| 20260905024832 | 78 | 226 | 0.0 | 0.0 | 0.00 | 0.00 | 0.00 | 72 | 1010.2 |
| 20260905024327 | 79 | 239 | 0.0 | 0.0 | 0.00 | 0.00 | 0.00 | 71 | 1010.2 |
| 20260905023822 | 79 | 211 | 0.0 | 0.0 | 0.00 | 0.00 | 0.00 | 71 | 1010.2 |
| 20260905023319 | 79 | 229 | 0.9 | 0.9 | 0.00 | 0.00 | 0.00 | 71 | 1010.1 |
| 20260905022817 | 79 | 171 | 0.0 | 0.9 | 0.00 | 0.00 | 0.00 | 70 | 1010.3 |
| 20260905022313 | 79 | 236 | 0.9 | 0.9 | 0.00 | 0.00 | 0.00 | 71 | 1010.3 |
| 20260905021813 | 79 | 223 | 0.9 | 0.9 | 0.00 | 0.00 | 0.00 | 70 | 1010.3 |
| 20260905021308 | 79 | 235 | 0.9 | 0.9 | 0.00 | 0.00 | 0.00 | 70 | 1010.2 |
| 20260905020807 | 79 | 227 | 1.7 | 1.7 | 0.00 | 0.00 | 0.00 | 70 | 1010.3 |
| 20260905020303 | 80 | 242 | 0.9 | 0.9 | 0.00 | 0.00 | 0.00 | 69 | 1010.4 |
| 20260905015801 | 80 | 182 | 0.9 | 0.9 | 0.00 | 0.00 | 0.00 | 69 | 1010.3 |
| 20260905015256 | 80 | 263 | 0.9 | 1.7 | 0.00 | 0.00 | 0.00 | 70 | 1010.3 |
| 20260905014754 | 80 | 264 | 0.9 | 0.9 | 0.00 | 0.00 | 0.00 | 70 | 1010.3 |
| 20260905014251 | 80 | 215 | 0.0 | 0.0 | 0.00 | 0.00 | 0.00 | 71 | 1010.2 |
| 20260905013746 | 80 | 195 | 0.0 | 0.0 | 0.00 | 0.00 | 0.00 | 70 | 1010.2 |
| 20260905013242 | 80 | 224 | 0.0 | 0.0 | 0.00 | 0.00 | 0.00 | 72 | 1010.2 |
| 20260905012737 | 80 | 225 | 0.9 | 0.9 | 0.00 | 0.00 | 0.00 | 73 | 1010.4 |
| 20260905012233 | 80 | 272 | 1.7 | 1.7 | 0.00 | 0.00 | 0.00 | 71 | 1010.5 |
| 20260905011730 | 80 | 326 | 0.9 | 0.9 | 0.00 | 0.00 | 0.00 | 72 | 1010.4 |
| 20260905011220 | 80 | 214 | 0.0 | 0.0 | 0.00 | 0.00 | 0.00 | 73 | 1010.4 |
| 20260905010719 | 80 | 279 | 0.9 | 0.9 | 0.00 | 0.00 | 0.00 | 73 | 1010.5 |
| 20260905010214 | 80 | 231 | 0.9 | 0.9 | 0.00 | 0.00 | 0.00 | 74 | 1010.3 |
| 20260905005711 | 81 | 231 | 0.9 | 0.9 | 0.00 | 0.00 | 0.00 | 73 | 1010.3 |
| 20260905005206 | 81 | 231 | 0.0 | 0.9 | 0.00 | 0.00 | 0.00 | 73 | 1010.2 |
| 20260905004701 | 81 | 226 | 0.9 | 1.7 | 0.00 | 0.00 | 0.00 | 73 | 1010.3 |
| 20260905004155 | 81 | 298 | 2.6 | 2.6 | 0.00 | 0.00 | 0.00 | 73 | 1010.0 |
| 20260905003651 | 81 | 297 | 2.6 | 2.6 | 0.00 | 0.00 | 0.00 | 73 | 1009.9 |
| 20260905003147 | 81 | 280 | 0.9 | 1.7 | 0.00 | 0.00 | 0.00 | 74 | 1010.0 |
| 20260905002643 | 81 | 246 | 0.0 | 0.0 | 0.00 | 0.00 | 0.00 | 74 | 1009.7 |
| 20260905002142 | 81 | 236 | 1.7 | 1.7 | 0.00 | 0.00 | 0.00 | 73 | 1009.7 |
| 20260905001638 | 81 | 266 | 0.9 | 1.7 | 0.00 | 0.00 | 0.00 | 73 | 1009.6 |
| 20260905001137 | 81 | 231 | 0.0 | 0.9 | 0.00 | 0.00 | 0.00 | 73 | 1009.7 |
| 20260905000633 | 81 | 239 | 1.7 | 1.7 | 0.00 | 0.00 | 0.00 | 73 | 1009.9 |
| 20260905000129 | 81 | 334 | 0.9 | 1.7 | 0.00 | 0.00 | 0.00 | 73 | 1009.9 |
| 20260904235628 | 81 | 237 | 0.9 | 1.7 | 0.00 | 0.00 | 0.00 | 73 | 1009.9 |
| 20260904235127 | 81 | 240 | 0.0 | 0.9 | 0.00 | 0.00 | 0.00 | 75 | 1009.8 |
| 20260904234623 | 81 | 240 | 0.0 | 0.0 | 0.00 | 0.00 | 0.00 | 75 | 1010.0 |
| 20260904234119 | 82 | 240 | 0.0 | 0.0 | 0.00 | 0.00 | 0.00 | 73 | 1009.9 |
| 20260904233614 | 82 | 240 | 0.0 | 0.9 | 0.00 | 0.00 | 0.00 | 72 | 1010.0 |
| 20260904233110 | 82 | 257 | 0.9 | 1.7 | 0.00 | 0.00 | 0.00 | 72 | 1010.2 |
| 20260904232606 | 82 | 246 | 0.9 | 0.9 | 0.00 | 0.00 | 0.00 | 73 | 1010.2 |
| 20260904232102 | 82 | 237 | 0.0 | 0.0 | 0.00 | 0.00 | 0.00 | 72 | 1010.1 |
| 20260904231558 | 82 | 233 | 0.0 | 0.9 | 0.00 | 0.00 | 0.00 | 72 | 1010.0 |
| 20260904231058 | 82 | 236 | 0.9 | 0.9 | 0.00 | 0.00 | 0.00 | 71 | 1010.1 |
| 20260904230557 | 82 | 228 | 0.9 | 0.9 | 0.00 | 0.00 | 0.00 | 71 | 1010.1 |
| 20260904230053 | 82 | 237 | 0.9 | 0.9 | 0.00 | 0.00 | 0.00 | 71 | 1009.9 |
| 20260904225551 | 82 | 250 | 0.9 | 1.7 | 0.00 | 0.00 | 0.00 | 70 | 1010.0 |
| 20260904225051 | 83 | 250 | 1.7 | 1.7 | 0.00 | 0.00 | 0.00 | 70 | 1010.2 |
| 20260904224546 | 83 | 225 | 1.7 | 1.7 | 0.00 | 0.00 | 0.00 | 69 | 1010.0 |
| 20260904224046 | 83 | 251 | 1.7 | 1.7 | 0.00 | 0.00 | 0.00 | 69 | 1010.1 |
| 20260904223544 | 83 | 244 | 1.7 | 2.6 | 0.00 | 0.00 | 0.00 | 68 | 1010.2 |
| 20260904223041 | 84 | 269 | 4.3 | 4.3 | 0.00 | 0.00 | 0.00 | 67 | 1009.9 |
| 20260904222536 | 84 | 301 | 3.5 | 5.2 | 0.00 | 0.00 | 0.00 | 67 | 1010.2 |
| 20260904222031 | 84 | 264 | 2.6 | 4.3 | 0.00 | 0.00 | 0.00 | 67 | 1009.9 |
| 20260904221527 | 84 | 253 | 2.6 | 2.6 | 0.00 | 0.00 | 0.00 | 67 | 1009.9 |
| 20260904221026 | 84 | 288 | 2.6 | 2.6 | 0.00 | 0.00 | 0.00 | 67 | 1009.8 |
| 20260904220526 | 84 | 242 | 2.6 | 2.6 | 0.00 | 0.00 | 0.00 | 65 | 1010.0 |
| 20260904220022 | 84 | 326 | 4.3 | 5.2 | 0.00 | 0.00 | 0.00 | 66 | 1010.1 |
| 20260904215522 | 84 | 286 | 2.6 | 4.3 | 0.00 | 0.00 | 0.00 | 66 | 1009.8 |
| 20260904215017 | 84 | 309 | 2.6 | 2.6 | 0.00 | 0.00 | 0.00 | 66 | 1009.9 |
| 20260904214513 | 84 | 253 | 3.5 | 4.3 | 0.00 | 0.00 | 0.00 | 66 | 1010.1 |
| 20260904214008 | 84 | 262 | 4.3 | 6.1 | 0.00 | 0.00 | 0.00 | 65 | 1010.0 |
| 20260904213506 | 85 | 252 | 3.5 | 6.1 | 0.00 | 0.00 | 0.00 | 65 | 1010.1 |
| 20260904213003 | 85 | 189 | 2.6 | 2.6 | 0.00 | 0.00 | 0.00 | 65 | 1010.1 |
| 20260904212503 | 85 | 239 | 0.9 | 1.7 | 0.00 | 0.00 | 0.00 | 65 | 1009.8 |
| 20260904211958 | 86 | 244 | 4.3 | 5.2 | 0.00 | 0.00 | 0.00 | 63 | 1009.8 |
| 20260904211458 | 86 | 254 | 2.6 | 2.6 | 0.00 | 0.00 | 0.00 | 64 | 1009.8 |
| 20260904210954 | 86 | 297 | 6.1 | 7.8 | 0.00 | 0.00 | 0.00 | 62 | 1009.9 |
| 20260904210452 | 86 | 269 | 3.5 | 4.3 | 0.00 | 0.00 | 0.00 | 64 | 1010.0 |
| 20260904205948 | 87 | 245 | 3.5 | 4.3 | 0.00 | 0.00 | 0.00 | 63 | 1009.9 |
| 20260904205443 | 86 | 273 | 3.5 | 4.3 | 0.00 | 0.00 | 0.00 | 64 | 1009.9 |
| 20260904204941 | 86 | 235 | 2.6 | 4.3 | 0.00 | 0.00 | 0.00 | 65 | 1010.0 |
| 20260904204436 | 87 | 215 | 2.6 | 2.6 | 0.00 | 0.00 | 0.00 | 64 | 1010.1 |
| 20260904203932 | 86 | 225 | 0.9 | 1.7 | 0.00 | 0.00 | 0.00 | 65 | 1010.1 |
| 20260904203428 | 85 | 207 | 3.5 | 4.3 | 0.00 | 0.00 | 0.00 | 66 | 1009.9 |
| 20260904202924 | 86 | 274 | 6.1 | 8.7 | 0.00 | 0.00 | 0.00 | 63 | 1010.0 |
| 20260904202420 | 87 | 331 | 3.5 | 7.0 | 0.00 | 0.00 | 0.00 | 63 | 1010.0 |
| 20260904201916 | 87 | 203 | 0.9 | 1.7 | 0.00 | 0.00 | 0.00 | 65 | 1010.2 |
| 20260904201411 | 87 | 238 | 7.8 | 9.6 | 0.00 | 0.00 | 0.00 | 64 | 1010.0 |
| 20260904200906 | 86 | 330 | 4.3 | 5.2 | 0.00 | 0.00 | 0.00 | 65 | 1010.3 |
| 20260904200404 | 87 | 304 | 6.1 | 7.8 | 0.00 | 0.00 | 0.00 | 63 | 1010.2 |
| 20260904195859 | 86 | 287 | 5.2 | 6.1 | 0.00 | 0.00 | 0.00 | 65 | 1010.5 |
| 20260904195358 | 86 | 292 | 1.7 | 2.6 | 0.00 | 0.00 | 0.00 | 65 | 1010.3 |
| 20260904194852 | 86 | 323 | 4.3 | 7.8 | 0.00 | 0.00 | 0.00 | 64 | 1010.5 |
| 20260904194352 | 86 | 242 | 6.1 | 7.0 | 0.00 | 0.00 | 0.00 | 64 | 1010.3 |
| 20260904193847 | 86 | 271 | 4.3 | 5.2 | 0.00 | 0.00 | 0.00 | 65 | 1010.8 |
| 20260904193342 | 86 | 309 | 8.7 | 11.3 | 0.00 | 0.00 | 0.00 | 65 | 1010.8 |
| 20260904192838 | 85 | 341 | 5.2 | 8.7 | 0.00 | 0.00 | 0.00 | 66 | 1011.0 |
| 20260904192333 | 85 | 224 | 1.7 | 1.7 | 0.00 | 0.00 | 0.00 | 66 | 1011.0 |
| 20260904191830 | 86 | 273 | 3.5 | 4.3 | 0.00 | 0.00 | 0.00 | 65 | 1010.8 |
| 20260904191326 | 84 | 291 | 4.3 | 6.1 | 0.00 | 0.00 | 0.00 | 66 | 1010.7 |
| 20260904190822 | 84 | 277 | 4.3 | 6.1 | 0.00 | 0.00 | 0.00 | 66 | 1010.9 |
| 20260904190318 | 85 | 263 | 5.2 | 6.1 | 0.00 | 0.00 | 0.00 | 65 | 1010.9 |
| 20260904185814 | 86 | 196 | 0.9 | 0.9 | 0.00 | 0.00 | 0.00 | 64 | 1010.8 |
| 20260904185309 | 86 | 286 | 3.5 | 4.3 | 0.00 | 0.00 | 0.00 | 63 | 1010.8 |
| 20260904184808 | 87 | 259 | 5.2 | 7.0 | 0.00 | 0.00 | 0.00 | 63 | 1010.8 |
| 20260904184304 | 86 | 263 | 4.3 | 6.1 | 0.00 | 0.00 | 0.00 | 63 | 1010.9 |
| 20260904183800 | 86 | 308 | 7.8 | 9.6 | 0.00 | 0.00 | 0.00 | 62 | 1010.9 |
| 20260904183259 | 86 | 325 | 4.3 | 6.1 | 0.00 | 0.00 | 0.00 | 61 | 1010.9 |
| 20260904182755 | 86 | 29 | 6.1 | 8.7 | 0.00 | 0.00 | 0.00 | 62 | 1010.7 |
| 20260904182250 | 87 | 288 | 5.2 | 6.1 | 0.00 | 0.00 | 0.00 | 60 | 1010.9 |
| 20260904181746 | 86 | 260 | 3.5 | 4.3 | 0.00 | 0.00 | 0.00 | 61 | 1011.0 |
| 20260904181245 | 86 | 302 | 6.1 | 6.1 | 0.00 | 0.00 | 0.00 | 60 | 1011.0 |
| 20260904180741 | 86 | 303 | 5.2 | 6.1 | 0.00 | 0.00 | 0.00 | 61 | 1011.0 |
| 20260904180236 | 86 | 295 | 5.2 | 6.1 | 0.00 | 0.00 | 0.00 | 61 | 1011.0 |
| 20260904175735 | 86 | 301 | 3.5 | 5.2 | 0.00 | 0.00 | 0.00 | 62 | 1010.9 |
| 20260904175233 | 87 | 244 | 2.6 | 4.3 | 0.00 | 0.00 | 0.00 | 59 | 1011.0 |
| 20260904174728 | 87 | 281 | 2.6 | 5.2 | 0.00 | 0.00 | 0.00 | 60 | 1011.1 |
| 20260904174224 | 87 | 317 | 2.6 | 4.3 | 0.00 | 0.00 | 0.00 | 58 | 1011.0 |
| 20260904173720 | 86 | 288 | 1.7 | 1.7 | 0.00 | 0.00 | 0.00 | 59 | 1011.2 |
| 20260904173215 | 86 | 249 | 2.6 | 4.3 | 0.00 | 0.00 | 0.00 | 61 | 1011.1 |
| 20260904172712 | 86 | 316 | 4.3 | 6.1 | 0.00 | 0.00 | 0.00 | 61 | 1010.9 |
| 20260904172210 | 86 | 182 | 0.0 | 0.9 | 0.00 | 0.00 | 0.00 | 60 | 1011.0 |
| 20260904171706 | 86 | 256 | 0.9 | 1.7 | 0.00 | 0.00 | 0.00 | 60 | 1011.1 |
| 20260904171201 | 86 | 295 | 2.6 | 5.2 | 0.00 | 0.00 | 0.00 | 61 | 1011.0 |
| 20260904170657 | 86 | 57 | 1.7 | 2.6 | 0.00 | 0.00 | 0.00 | 61 | 1011.2 |
| 20260904170153 | 87 | 233 | 1.7 | 1.7 | 0.00 | 0.00 | 0.00 | 60 | 1011.1 |
| 20260904165651 | 87 | 320 | 2.6 | 6.1 | 0.00 | 0.00 | 0.00 | 59 | 1011.0 |
| 20260904165151 | 87 | 280 | 5.2 | 7.8 | 0.00 | 0.00 | 0.00 | 59 | 1011.0 |
| 20260904164646 | 87 | 86 | 0.9 | 1.7 | 0.00 | 0.00 | 0.00 | 58 | 1011.1 |
| 20260904164141 | 88 | 236 | 1.7 | 1.7 | 0.00 | 0.00 | 0.00 | 59 | 1010.9 |
| 20260904163636 | 87 | 206 | 1.7 | 2.6 | 0.00 | 0.00 | 0.00 | 61 | 1010.8 |
| 20260904163132 | 87 | 351 | 4.3 | 7.0 | 0.00 | 0.00 | 0.00 | 58 | 1011.0 |
| 20260904162626 | 87 | 106 | 4.3 | 6.1 | 0.00 | 0.00 | 0.00 | 58 | 1011.2 |
| 20260904162126 | 87 | 72 | 7.0 | 11.3 | 0.00 | 0.00 | 0.00 | 57 | 1011.2 |
| 20260904161621 | 85 | 295 | 2.6 | 2.6 | 0.00 | 0.00 | 0.00 | 61 | 1011.3 |
| 20260904161116 | 86 | 291 | 7.8 | 9.6 | 0.00 | 0.00 | 0.00 | 62 | 1011.2 |
| 20260904160612 | 85 | 280 | 3.5 | 5.2 | 0.00 | 0.00 | 0.00 | 62 | 1011.2 |
| 20260904160108 | 85 | 301 | 3.5 | 4.3 | 0.00 | 0.00 | 0.00 | 64 | 1011.2 |
| 20260904155608 | 86 | 191 | 3.5 | 5.2 | 0.00 | 0.00 | 0.00 | 63 | 1011.2 |
| 20260904155102 | 85 | 7 | 4.3 | 6.1 | 0.00 | 0.00 | 0.00 | 63 | 1011.4 |
| 20260904154555 | 86 | 288 | 7.0 | 7.8 | 0.00 | 0.00 | 0.00 | 62 | 1011.2 |
| 20260904154050 | 85 | 345 | 3.5 | 5.2 | 0.00 | 0.00 | 0.00 | 64 | 1011.4 |
| 20260904153549 | 85 | 82 | 1.7 | 2.6 | 0.00 | 0.00 | 0.00 | 65 | 1011.4 |
| 20260904153046 | 86 | 246 | 4.3 | 5.2 | 0.00 | 0.00 | 0.00 | 64 | 1011.6 |
| 20260904152542 | 85 | 144 | 1.7 | 2.6 | 0.00 | 0.00 | 0.00 | 65 | 1011.4 |
| 20260904152037 | 84 | 318 | 4.3 | 6.1 | 0.00 | 0.00 | 0.00 | 66 | 1011.4 |
| 20260904151533 | 84 | 323 | 5.2 | 7.0 | 0.00 | 0.00 | 0.00 | 66 | 1011.7 |
| 20260904151026 | 85 | 262 | 4.3 | 6.1 | 0.00 | 0.00 | 0.00 | 66 | 1011.6 |
| 20260904150526 | 84 | 277 | 4.3 | 7.0 | 0.00 | 0.00 | 0.00 | 68 | 1011.5 |
| 20260904150021 | 84 | 312 | 4.3 | 6.1 | 0.00 | 0.00 | 0.00 | 67 | 1011.4 |
| 20260904145515 | 84 | 305 | 4.3 | 7.0 | 0.00 | 0.00 | 0.00 | 69 | 1011.5 |
| 20260904145010 | 84 | 230 | 2.6 | 2.6 | 0.00 | 0.00 | 0.00 | 69 | 1011.6 |
| 20260904144507 | 84 | 341 | 2.6 | 2.6 | 0.00 | 0.00 | 0.00 | 69 | 1011.5 |
| 20260904144002 | 84 | 232 | 4.3 | 4.3 | 0.00 | 0.00 | 0.00 | 71 | 1011.4 |
| 20260904143457 | 84 | 345 | 5.2 | 6.1 | 0.00 | 0.00 | 0.00 | 70 | 1011.4 |
| 20260904142954 | 83 | 224 | 1.7 | 2.6 | 0.00 | 0.00 | 0.00 | 70 | 1011.6 |
| 20260904142450 | 83 | 281 | 5.2 | 7.8 | 0.00 | 0.00 | 0.00 | 71 | 1011.5 |
| 20260904141950 | 83 | 351 | 1.7 | 2.6 | 0.00 | 0.00 | 0.00 | 74 | 1011.5 |
| 20260904141445 | 82 | 256 | 6.1 | 7.0 | 0.00 | 0.00 | 0.00 | 74 | 1011.4 |
| 20260904140941 | 83 | 221 | 4.3 | 6.1 | 0.00 | 0.00 | 0.00 | 74 | 1011.5 |
| 20260904140441 | 82 | 37 | 2.6 | 2.6 | 0.00 | 0.00 | 0.00 | 75 | 1011.4 |
| 20260904135940 | 83 | 321 | 5.2 | 7.0 | 0.00 | 0.00 | 0.00 | 76 | 1011.4 |
| 20260904135440 | 82 | 321 | 5.2 | 7.8 | 0.00 | 0.00 | 0.00 | 76 | 1011.3 |
| 20260904134937 | 82 | 324 | 8.7 | 9.6 | 0.00 | 0.00 | 0.00 | 77 | 1011.2 |
| 20260904134436 | 81 | 266 | 2.6 | 2.6 | 0.00 | 0.00 | 0.00 | 79 | 1011.3 |
| 20260904133931 | 81 | 306 | 6.1 | 7.8 | 0.00 | 0.00 | 0.00 | 80 | 1011.4 |
| 20260904133426 | 81 | 297 | 3.5 | 4.3 | 0.00 | 0.00 | 0.00 | 80 | 1011.3 |
| 20260904132921 | 80 | 279 | 6.1 | 8.7 | 0.00 | 0.00 | 0.00 | 80 | 1011.1 |
| 20260904132416 | 80 | 269 | 7.0 | 7.8 | 0.00 | 0.00 | 0.00 | 80 | 1011.1 |
| 20260904131916 | 80 | 289 | 2.6 | 2.6 | 0.00 | 0.00 | 0.00 | 82 | 1011.1 |
| 20260904131411 | 80 | 306 | 7.0 | 7.8 | 0.00 | 0.00 | 0.00 | 82 | 1011.0 |
| 20260904130907 | 80 | 281 | 2.6 | 2.6 | 0.00 | 0.00 | 0.00 | 84 | 1011.0 |
| 20260904130405 | 79 | 270 | 4.3 | 6.1 | 0.00 | 0.00 | 0.00 | 84 | 1011.2 |
| 20260904125901 | 79 | 266 | 1.7 | 2.6 | 0.00 | 0.00 | 0.00 | 85 | 1011.2 |
| 20260904125357 | 79 | 324 | 4.3 | 5.2 | 0.00 | 0.00 | 0.00 | 84 | 1011.0 |
| 20260904124856 | 79 | 261 | 4.3 | 5.2 | 0.00 | 0.00 | 0.00 | 85 | 1011.1 |
| 20260904124353 | 79 | 212 | 5.2 | 7.0 | 0.00 | 0.00 | 0.00 | 86 | 1011.0 |
| 20260904123848 | 78 | 306 | 5.2 | 7.0 | 0.00 | 0.00 | 0.00 | 86 | 1010.8 |
| 20260904123343 | 78 | 205 | 1.7 | 1.7 | 0.00 | 0.00 | 0.00 | 86 | 1011.0 |
| 20260904122839 | 78 | 245 | 4.3 | 7.0 | 0.00 | 0.00 | 0.00 | 87 | 1011.1 |
| 20260904122339 | 78 | 234 | 0.9 | 1.7 | 0.00 | 0.00 | 0.00 | 87 | 1011.2 |
| 20260904121839 | 78 | 268 | 2.6 | 2.6 | 0.00 | 0.00 | 0.00 | 88 | 1011.0 |
| 20260904121335 | 78 | 246 | 2.6 | 4.3 | 0.00 | 0.00 | 0.00 | 89 | 1011.1 |
| 20260904120832 | 77 | 299 | 6.1 | 7.0 | 0.00 | 0.00 | 0.00 | 89 | 1011.1 |
| 20260904120327 | 77 | 320 | 3.5 | 5.2 | 0.00 | 0.00 | 0.00 | 90 | 1010.9 |
| 20260904115822 | 76 | 258 | 2.6 | 2.6 | 0.00 | 0.00 | 0.00 | 92 | 1011.2 |
| 20260904115317 | 76 | 235 | 1.7 | 1.7 | 0.00 | 0.00 | 0.00 | 92 | 1011.1 |
| 20260904114817 | 76 | 229 | 0.9 | 0.9 | 0.00 | 0.00 | 0.00 | 92 | 1011.1 |
| 20260904114312 | 76 | 288 | 2.6 | 4.3 | 0.00 | 0.00 | 0.00 | 92 | 1010.9 |
| 20260904113807 | 76 | 243 | 1.7 | 1.7 | 0.00 | 0.00 | 0.00 | 92 | 1010.9 |
| 20260904113306 | 76 | 276 | 3.5 | 6.1 | 0.00 | 0.00 | 0.00 | 92 | 1010.9 |
| 20260904112801 | 75 | 288 | 1.7 | 1.7 | 0.00 | 0.00 | 0.00 | 93 | 1010.7 |
| 20260904112256 | 75 | 235 | 2.6 | 4.3 | 0.00 | 0.00 | 0.00 | 93 | 1010.5 |
| 20260904111752 | 75 | 261 | 0.9 | 1.7 | 0.00 | 0.00 | 0.00 | 93 | 1010.8 |
| 20260904111248 | 75 | 204 | 0.0 | 0.9 | 0.00 | 0.00 | 0.00 | 94 | 1010.6 |
| 20260904110743 | 75 | 243 | 0.9 | 1.7 | 0.00 | 0.00 | 0.00 | 93 | 1010.7 |
| 20260904110242 | 75 | 246 | 1.7 | 1.7 | 0.00 | 0.00 | 0.00 | 93 | 1010.3 |
| 20260904105737 | 75 | 237 | 0.9 | 0.9 | 0.00 | 0.00 | 0.00 | 93 | 1010.5 |
| 20260904105232 | 75 | 248 | 0.9 | 0.9 | 0.00 | 0.00 | 0.00 | 93 | 1010.3 |
| 20260904104728 | 75 | 265 | 2.6 | 2.6 | 0.00 | 0.00 | 0.00 | 93 | 1010.3 |
| 20260904104223 | 75 | 209 | 0.9 | 0.9 | 0.00 | 0.00 | 0.00 | 93 | 1010.4 |
| 20260904103720 | 75 | 214 | 0.9 | 0.9 | 0.00 | 0.00 | 0.00 | 93 | 1010.3 |
| 20260904103214 | 75 | 236 | 1.7 | 2.6 | 0.00 | 0.00 | 0.00 | 92 | 1010.0 |
| 20260904102710 | 75 | 236 | 0.9 | 0.9 | 0.00 | 0.00 | 0.00 | 92 | 1010.2 |
| 20260904102205 | 75 | 224 | 0.0 | 0.0 | 0.00 | 0.00 | 0.00 | 91 | 1010.3 |
| 20260904101702 | 76 | 221 | 0.0 | 0.0 | 0.00 | 0.00 | 0.00 | 91 | 1010.1 |
| 20260904101157 | 76 | 229 | 0.9 | 1.7 | 0.00 | 0.00 | 0.00 | 91 | 1010.4 |
| 20260904100653 | 76 | 228 | 0.0 | 0.9 | 0.00 | 0.00 | 0.00 | 90 | 1010.2 |
| 20260904100148 | 76 | 266 | 2.6 | 2.6 | 0.00 | 0.00 | 0.00 | 90 | 1010.1 |
| 20260904095643 | 77 | 270 | 1.7 | 1.7 | 0.00 | 0.00 | 0.00 | 89 | 1010.2 |
| 20260904095138 | 77 | 297 | 3.5 | 5.2 | 0.00 | 0.00 | 0.00 | 89 | 1010.3 |
| 20260904094633 | 77 | 327 | 2.6 | 2.6 | 0.00 | 0.00 | 0.00 | 89 | 1010.2 |
| 20260904094132 | 77 | 276 | 2.6 | 2.6 | 0.00 | 0.00 | 0.00 | 89 | 1010.3 |
| 20260904093630 | 77 | 331 | 6.1 | 7.0 | 0.00 | 0.00 | 0.00 | 88 | 1010.0 |
| 20260904093129 | 77 | 238 | 1.7 | 2.6 | 0.00 | 0.00 | 0.00 | 88 | 1010.2 |
| 20260904092625 | 77 | 238 | 0.9 | 1.7 | 0.00 | 0.00 | 0.00 | 88 | 1010.2 |
| 20260904092121 | 77 | 325 | 3.5 | 4.3 | 0.00 | 0.00 | 0.00 | 87 | 1010.0 |